Weather History for Minneapolis Flying Cloud, MN

Change the Weather History Date:

Friday, September 21, 2012

  Actual Average Record
Temperature  
Mean Temperature 54 °F -  
Max Temperature 64 °F 68 °F 89 °F (2005)
Min Temperature 44 °F 47 °F 33 °F (1999)
Degree Days  
Heating Degree Days 11    
Growing Degree Days 4 (Base 50)    
Moisture  
Dew Point 40 °F    
Average Humidity 59    
Maximum Humidity 83    
Minimum Humidity 35    
Precipitation  
Precipitation 0.00 in - - ()
Sea Level Pressure  
Sea Level Pressure 29.84 in    
Wind  
Wind Speed 7 mph (NW)    
Max Wind Speed 24 mph    
Max Gust Speed 31 mph    
Visibility 10 miles    
Events Rain    
Averages and records for this station are not official NWS values.
T = Trace of Precipitation, MM = Missing Value Source: NWS Daily Summary

Daily Weather History Graph

Daily Weather History Graph

Search for Another Location

Airport:

Trip Planner

Search our weather history database for the weather conditions in past years. The results will help you decide how hot, cold, wet, or windy it might be!

Date:

Astronomy

Sep. 21, 2012 Rise Set
Actual Time 7:00 AM CDT 7:12 PM CDT
Civil Twilight 6:31 AM CDT 7:41 PM CDT
Nautical Twilight 5:56 AM CDT 8:15 PM CDT
Astronomical Twilight 5:21 AM CDT 8:50 PM CDT
Moon 1:38 PM CDT (9/21) 10:58 PM CDT (9/21)
Length of Visible Light 13h 10m
Length of Day
12h 11m
Waxing Crescent, 37% of the Moon is Illuminated
Sep 21
Waxing Crescent
Sep 22
First Quarter
Sep 29
Full
Oct 8
Last Quarter
Oct 15
New

Hourly Weather History & Observations

Time (CDT) Temp. Windchill Dew Point Humidity Pressure Visibility Wind Dir Wind Speed Gust Speed Precip Events Conditions
12:53 AM 57.9 °F - 35.1 °F 42% 29.84 in 10.0 mi WNW 9.2 mph - N/A   Overcast
1:53 AM 55.0 °F - 39.9 °F 57% 29.86 in 10.0 mi North 6.9 mph - N/A   Overcast
2:53 AM 52.0 °F - 43.0 °F 71% 29.87 in 10.0 mi North 6.9 mph - N/A   Mostly Cloudy
3:53 AM 51.1 °F - 42.1 °F 71% 29.86 in 10.0 mi Calm Calm - N/A   Mostly Cloudy
4:53 AM 50.0 °F - 43.0 °F 77% 29.85 in 10.0 mi Calm Calm - N/A   Overcast
5:53 AM 51.1 °F - 44.1 °F 77% 29.86 in 10.0 mi SW 5.8 mph - N/A   Overcast
6:53 AM 51.1 °F - 45.0 °F 80% 29.84 in 10.0 mi Calm Calm - 0.00 in   Overcast
7:53 AM 51.1 °F - 46.0 °F 83% 29.83 in 9.0 mi Calm Calm - N/A   Overcast
8:53 AM 53.1 °F - 45.0 °F 74% 29.84 in 10.0 mi Calm Calm - N/A   Overcast
9:53 AM 55.9 °F - 45.0 °F 67% 29.86 in 10.0 mi NNW 5.8 mph - 0.00 in   Overcast
10:53 AM 55.9 °F - 43.0 °F 62% 29.86 in 10.0 mi North 8.1 mph - N/A   Overcast
11:53 AM 55.9 °F - 43.0 °F 62% 29.86 in 10.0 mi NW 8.1 mph - N/A   Overcast
12:53 PM 59.0 °F - 42.1 °F 53% 29.85 in 10.0 mi WNW 8.1 mph - N/A   Overcast
1:53 PM 60.1 °F - 41.0 °F 49% 29.83 in 10.0 mi WNW 12.7 mph 17.3 mph N/A   Mostly Cloudy
2:53 PM 59.0 °F - 39.9 °F 49% 29.83 in 10.0 mi WNW 10.4 mph - N/A   Overcast
3:53 PM 57.9 °F - 39.9 °F 51% 29.82 in 10.0 mi North 11.5 mph - N/A   Overcast
4:53 PM 62.1 °F - 39.9 °F 44% 29.81 in 10.0 mi NW 6.9 mph - N/A   Partly Cloudy
5:53 PM 59.0 °F - 37.0 °F 44% 29.82 in 10.0 mi NW 5.8 mph - N/A   Partly Cloudy
6:53 PM 60.1 °F - 32.0 °F 35% 29.82 in 10.0 mi WNW 6.9 mph - N/A   Clear
7:53 PM 55.0 °F - 32.0 °F 42% 29.82 in 10.0 mi West 4.6 mph - N/A   Clear
8:53 PM 52.0 °F - 33.1 °F 49% 29.81 in 10.0 mi WSW 4.6 mph - N/A   Clear
9:53 PM 52.0 °F - 34.0 °F 50% 29.81 in 10.0 mi North 10.4 mph - N/A   Mostly Cloudy
10:53 PM 46.0 °F 37.6 °F 37.0 °F 71% 29.86 in 10.0 mi NNW 24.2 mph 31.1 mph 0.00 in Rain Light Rain
11:53 PM 44.1 °F 35.7 °F 30.9 °F 60% 29.89 in 10.0 mi NNW 20.7 mph 27.6 mph 0.00 in   Partly Cloudy